Find Comstar 201

NORAD ID: 8838 Int'l Des: 1976-042 Owner: COM Country: US operational
HEOCIRCULAR

Live Position

Loading 3D Globe...

About Comstar 201

Description loading...

Upcoming Passes

Passes for default location (London). Set your location on the main map for personalized predictions.

Altitude History

Loading altitude history...

Two-Line Element Set

1 08838U 76042A 26105.56617154 -.00000108 00000-0 00000-0 0 9995
2 08838 8.1022 305.0810 0005082 3.5382 4.7810 0.99816736119959
Epoch: Apr 15, 2026 • Age: 52 hours

Current Status

Altitude 35904.2 km
Velocity 3.07 km/s
Sub-Earth Point 7.50°N, 97.85°W
Type other

Most Searched